Погода в Пухнове

Россия / Псковская область     55°58′10″N   31°05′59″E
темп.,
°C
ветер,
м/с
пор.,
м/с
влажн.,
%
обл.,
%
осадки,
мм/ч
давл.,
гПа
погр.,
м
13 мая, чт
чт1300:00+12св3898100 2.1 1014346
03:00+12вюв6129246 4.7 1012932
06:00+9юв5119230 0.1 1014855
09:00+11вюв5127558 0.1 10141298
12:00+16вюв6105185 0.0 10122038
15:00+14вюв5971100 0.6 10111234
18:00+11вюв389077 1.3 1011647
21:00+9юв27962 1.7 1010196
14 мая, пт
пт1400:00+7юв399730 0.3 1011251
03:00+6юв399755 0.3 1012222
06:00+8юв4129485 0.0 1011568
09:00+10юв41292100 0.1 1011572
12:00+12юв51285100 0.0 1012724
15:00+13юв41077100 0.0 1011634
18:00+13юв2682100 0.2 1009142
21:00+12в26915 0.2 100889
15 мая, сб
сб1500:00+10вюв2696100 0.0 1008108
03:00+11юв2398100 0.3 100763
06:00+11вюв2398100 1.5 100793
09:00+15ююв238225 1.5 1007417
12:00+21ююв125513 0.2 10061254
15:00+19юв1269100 3.0 10051004
18:00+18ююв127892 1.9 1005310
21:00+13з269499 5.5 1005118
16 мая, вс
вс1600:00+12зюз229497 0.1 100622
03:00+12зюз2599100 1.0 1007145
06:00+11зюз259830 0.3 1009123
09:00+15зсз248654 0.3 1010537
12:00+19зсз236154 0.1 10111354
15:00+21з344628 0.1 10111975
18:00+19зюз236911 0.3 1011502
21:00+14ююв118324 0.7 101211
17 мая, пн
пн1700:00+12ю229598 0.0 101321
03:00+11ююв2297100 0.0 101333
06:00+11юв2595100 0.0 1013134
09:00+16ююв367894 0.0 1013411
12:00+20ююв355799 0.0 10121203
15:00+22юв4650100 0.0 10111866
18:00+20вюв3664100 0.0 1010421
21:00+15св2389100 0.7 100962